Flag Weather past 2 weeks in Wegberg, North Rhine-Westphalia, Germany

Now
50 °F

Clear.


Feels Like: 49 °F
Forecast: 38 / 45 °F
Wind: 3 mph from North

Location: Monchengladbach Airport

Current Time: Nov 24, 2014 at 1:31:16 PM

Latest Report: Nov 24, 2014 at 12:50 PM


Visibility: 10 mi

Pressure: 30.27 "Hg

Humidity: 62%

Dew point: 37 °F

Location of WegbergLocation

Historic Weather in Wegberg — Graph

°F

Wegberg temperature yesterday

Maximum temperature yesterday: 54 °F (at 12:50 PM)
Minimum temperature yesterday: 46 °F (at 7:50 AM)
Average temperature yesterday: 51 °F

Past Weeks' High & Low Weather Summary

 TemperatureHumidityPressure
High57 °F (Nov 10, 2:20 PM)100% (Nov 10, 7:50 AM)30.33 "Hg (Nov 10, 7:50 AM)
Low34 °F (Nov 20, 7:50 AM)62% (Nov 21, 2:20 PM)29.50 "Hg (Nov 16, 4:50 PM)
Average49 °F87%29.87 "Hg
* Reported Nov 9 12:20 PM — Nov 24 12:20 PM, Wegberg, Weather by CustomWeather, © 2014

Note: Actual official high and low records may vary slightly from our data, if they occured in-between our weather recording intervals... More about our weather records

Advertising

Wegberg weather history for previous 24 hours

 ConditionsComfort  
Time TempWeatherWind HumidityBarometerVisibility
12:20 PM
Nov 24
50 °FPassing clouds.5 mph71%30.27 "HgN/A
11:50 AM50 °FClear.5 mph76%30.27 "Hg10 mi
11:20 AM50 °FClear.6 mph76%30.27 "Hg10 mi
10:50 AM48 °FClear.5 mph87%30.27 "Hg10 mi
10:20 AM48 °FClear.3 mph87%30.27 "Hg10 mi
9:50 AM46 °FClear.3 mph100%30.27 "Hg10 mi
9:20 AM43 °FFog.1 mph100%30.24 "Hg5 mi
8:50 AM43 °FClear.3 mph93%30.24 "Hg10 mi
8:20 AM45 °FClear.3 mph93%30.21 "Hg10 mi
7:50 AM46 °FPassing clouds.6 mph93%30.21 "HgN/A
7:50 PM
Nov 23
50 °FPassing clouds.9 mph82%29.98 "HgN/A
7:20 PM52 °FPassing clouds.9 mph82%29.98 "HgN/A
6:50 PM52 °FPassing clouds.9 mph82%29.98 "HgN/A
6:20 PM52 °FPassing clouds.8 mph82%29.98 "HgN/A
5:50 PM52 °FPassing clouds.9 mph82%29.98 "HgN/A
5:20 PM54 °FPassing clouds.9 mph77%29.98 "HgN/A
4:50 PM54 °FPassing clouds.8 mph77%29.98 "HgN/A
4:20 PM54 °FPassing clouds.9 mph77%29.98 "HgN/A
3:50 PM54 °FPassing clouds.9 mph77%29.98 "HgN/A
3:20 PM54 °FPassing clouds.9 mph77%30.01 "HgN/A
2:50 PM54 °FPassing clouds.8 mph77%30.01 "HgN/A
2:20 PM54 °FPassing clouds.8 mph77%30.01 "HgN/A
1:50 PM54 °FPassing clouds.8 mph77%30.01 "HgN/A
1:20 PM54 °FPassing clouds.9 mph77%30.04 "HgN/A
Weather by CustomWeather, © 2014

See weather overviewHow to use our weather pages